Home > Weather > Perg > Past weeks

Flag for Austria Weather for the Past 2 Weeks in Perg, Upper Austria, Austria

Now
32 °F

Clear.


Feels Like: 32 °F
Forecast: 29 / 65 °F
Wind: 1 mph from North

Location: Linz / Hoersching-Flughafen

Current Time: Apr 29, 2016 at 6:13:55 AM

Latest Report: Apr 29, 2016 at 5:20 AM


Visibility: N/A

Pressure: 30.09 "Hg

Humidity: 93%

Dew Point: 30 °F

Location of PergLocation

Historic Weather in Perg — Graph

°F

Perg Temperature Yesterday

Maximum temperature yesterday: 52 °F (at 4:20 PM)
Minimum temperature yesterday: 30 °F (at 1:20 AM)
Average temperature yesterday: 42 °F

High & Low Weather Summary for the Past Weeks

 TemperatureHumidityPressure
High68 °F (Apr 22, 3:50 PM)100% (Apr 15, 2:50 AM)30.36 "Hg (Apr 15, 2:50 AM)
Low30 °F (Apr 28, 1:20 AM)26% (Apr 22, 4:50 PM)29.59 "Hg (Apr 17, 4:50 AM)
Average48 °F72%29.93 "Hg
* Reported Apr 14 4:20 AM — Apr 29 4:20 AM, Perg, Weather by CustomWeather, © 2016

Note: Actual official high and low records may vary slightly from our data, if they occured in-between our weather recording intervals... More about our weather records

Advertising

Perg Weather History for the Previous 24 Hours

Scroll right to see more
 ConditionsComfort  
Time TempWeatherWind HumidityBarometerVisibility
4:20 AM
Fri, Apr 29
32 °FClear.2 mph100%30.09 "Hg10 mi
3:50 AM32 °FClear.1 mph93%30.09 "Hg10 mi
2:50 AM34 °FChilly.2 mph93%30.09 "HgN/A
2:20 AM36 °FChilly.1 mph87%30.09 "HgN/A
1:50 AM36 °FChilly.2 mph93%30.09 "HgN/A
12:50 AM37 °FPassing clouds.2 mph81%30.09 "HgN/A
12:20 AM37 °FPassing clouds.5 mph81%30.09 "HgN/A
11:50 PM
Thu, Apr 28
39 °FPassing clouds.5 mph81%30.07 "HgN/A
10:50 PM41 °FPassing clouds.5 mph76%30.07 "HgN/A
10:20 PM43 °FPassing clouds.2 mph66%30.07 "HgN/A
9:50 PM43 °FPassing clouds.5 mph66%30.07 "HgN/A
9:20 PM45 °FPassing clouds.5 mph61%30.04 "HgN/A
8:50 PM45 °FPassing clouds.3 mph57%30.04 "HgN/A
8:20 PM48 °FPassing clouds.2 mph54%30.04 "HgN/A
7:50 PM48 °FPassing clouds.5 mph58%30.01 "HgN/A
7:20 PM50 °FPassing clouds.6 mph50%30.01 "HgN/A
6:50 PM50 °FPassing clouds.8 mph50%30.01 "HgN/A
6:20 PM50 °FScattered clouds.3 mph43%30.01 "HgN/A
5:50 PM52 °FScattered clouds.5 mph38%29.98 "HgN/A
5:20 PM52 °FScattered clouds.3 mph35%29.98 "HgN/A
4:50 PM52 °FScattered clouds.2 mph41%29.98 "HgN/A
4:20 PM52 °FScattered clouds.2 mph38%29.98 "HgN/A
3:50 PM50 °FBroken clouds.3 mph37%30.01 "HgN/A
3:20 PM50 °FPartly sunny.6 mph47%30.01 "HgN/A
2:50 PM48 °FBroken clouds.7 mph37%30.01 "HgN/A
2:20 PM50 °FBroken clouds.2 mph43%30.01 "HgN/A
1:50 PM48 °FPartly sunny.3 mph50%30.01 "HgN/A
1:20 PM48 °FPartly sunny.5 mph46%30.01 "HgN/A
12:50 PM48 °FBroken clouds.2 mph54%30.01 "HgN/A
11:50 AM45 °FBroken clouds.3 mph66%30.01 "HgN/A
11:20 AM45 °FBroken clouds.3 mph71%30.01 "HgN/A
10:50 AM43 °FBroken clouds.2 mph76%30.01 "HgN/A
9:50 AM39 °FBroken clouds.2 mph87%30.01 "HgN/A
9:20 AM37 °FFog.3 mph93%30.01 "Hg3 mi
7:50 AM32 °FIce fog.2 mph100%30.01 "Hg0 mi
6:50 AM30 °FIce fog.2 mph100%30.01 "Hg0 mi
Weather by CustomWeather, © 2016

See weather overviewHow to use our weather pages